Погода в Смольках

Россия / Нижегородская область     56°40′06″N   43°38′17″E
темп.,
°C
ветер,
м/с
пор.,
м/с
влажн.,
%
обл.,
%
осадки,
мм/ч
давл.,
гПа
погр.,
м
15 апреля, чт
чт1500:00+10ююв22864 0.0 101914
03:00+9ю22856 0.0 101912
06:00+7ю228846 0.0 101915
09:00+14ю2364100 0.0 1019208
12:00+18ююз1151100 0.0 1019610
15:00+19с1146100 0.0 10181157
18:00+14ссв61174100 0.1 1019401
21:00+9св6128895 0.1 1022491
16 апреля, пт
пт1600:00+7всв6148821 0.0 1023499
03:00+5всв5138766 0.0 1024488
06:00+5всв5138292 0.0 1025520
09:00+8всв6107133 0.0 1026614
12:00+11всв676022 0.0 1026954
15:00+13всв675562 0.0 10261113
18:00+10всв595851 0.0 1026823
21:00+7всв512625 0.0 1028479
17 апреля, сб
сб1700:00+5всв412705 0.0 1028371
03:00+3всв412739 0.0 1029318
06:00+3всв412725 0.0 1029349
09:00+8всв59495 0.0 1029659
12:00+11всв57365 0.0 10281153
15:00+13всв56345 0.0 10281386
18:00+10всв47480 0.0 1027333
21:00+6св310680 0.0 1027223
18 апреля, вс
вс1800:00+4св310740 0.0 1027203
03:00+2св39800 0.0 1027181
06:00+3св410820 0.0 1027266
09:00+8всв475362 0.0 1027725
12:00+11св5742100 0.0 10261297
15:00+11всв4746100 0.0 10261585
18:00+9всв61064100 0.0 1027846
21:00+5всв51174100 0.0 1029610
19 апреля, пн
пн1900:00+3всв41163100 0.0 1030545
03:00+2всв51263100 0.0 1030491
06:000всв512640 0.0 1032512
09:00+4всв69410 0.0 10331182
12:00+7в57395 0.0 10321752
15:00+8в57355 0.0 10321894
18:00+7всв57400 0.0 10331013
21:00+2всв311540 0.0 1034292